Flag for U.S.A. Weather past 2 weeks in Ontario, Oregon, U.S.A.

Now
77 °F

Sunny.


Feels Like: 77 °F
Forecast: 41 / 78 °F
Wind: No wind

Location: Ontario Municipal Airport

Current Time: Apr 21, 2015 at 5:28:26 PM

Latest Report: Apr 21, 2015 at 4:53 PM


Visibility: 10 mi

Pressure: 29.75 "Hg

Humidity: 22%

Dew point: 35 °F

Location of OntarioLocation

Historic Weather in Ontario — Graph

°F

Ontario temperature yesterday

Maximum temperature yesterday: 75 °F (at 4:53 PM)
Minimum temperature yesterday: 39 °F (at 6:53 AM)
Average temperature yesterday: 58 °F

Past Weeks' High & Low Weather Summary

 TemperatureHumidityPressure
High78 °F (Apr 21, 3:53 PM)85% (Apr 7, 4:53 AM)30.40 "Hg (Apr 7, 4:53 AM)
Low30 °F (Apr 13, 6:53 AM)12% (Apr 18, 5:53 PM)29.65 "Hg (Apr 14, 12:53 AM)
Average52 °F46%30.03 "Hg
* Reported Apr 6 3:53 PM — Apr 21 3:53 PM, Ontario, Weather by CustomWeather, © 2015

Note: Actual official high and low records may vary slightly from our data, if they occured in-between our weather recording intervals... More about our weather records

Advertising

Ontario weather history for previous 24 hours

 ConditionsComfort  
Time TempWeatherWind HumidityBarometerVisibility
3:53 PM
Tue, Apr 21
78 °FSunny.7 mph21%29.77 "Hg10 mi
2:53 PM75 °FSunny.No wind22%29.79 "Hg10 mi
1:53 PM74 °FSunny.6 mph23%29.81 "Hg10 mi
12:53 PM71 °FSunny.No wind28%29.83 "Hg10 mi
11:53 AM65 °FSunny.No wind39%29.85 "Hg10 mi
10:53 AM60 °FSunny.No wind44%29.86 "Hg10 mi
9:53 AM53 °FSunny.No wind55%29.87 "Hg10 mi
8:53 AM49 °FClear.No wind59%29.87 "Hg10 mi
7:53 AM41 °FClear.No wind74%29.86 "Hg10 mi
6:53 AM42 °FClear.No wind68%29.85 "Hg10 mi
5:53 AM41 °FClear.No wind70%29.84 "Hg10 mi
4:53 AM44 °FClear.3 mph65%29.83 "Hg10 mi
3:53 AM43 °FClear.No wind71%29.82 "Hg10 mi
2:53 AM44 °FClear.6 mph65%29.82 "Hg10 mi
1:53 AM45 °FClear.7 mph63%29.83 "Hg10 mi
12:53 AM48 °FClear.5 mph59%29.82 "Hg10 mi
11:53 PM
Mon, Apr 20
50 °FClear.5 mph54%29.81 "Hg10 mi
10:53 PM54 °FClear.No wind47%29.81 "Hg10 mi
9:53 PM60 °FSunny.3 mph38%29.80 "Hg10 mi
8:53 PM66 °FSunny.3 mph31%29.79 "Hg10 mi
7:53 PM72 °FSunny.5 mph20%29.80 "Hg10 mi
6:53 PM72 °FSunny.3 mph29%29.81 "Hg10 mi
5:53 PM74 °FSunny.3 mph18%29.82 "Hg10 mi
Weather by CustomWeather, © 2015

See weather overviewHow to use our weather pages